Location: Prague
(50.0830°N, 14.4670°E)
Time: 18:20:21
(UTC+01:00)

KKS-1 - Visible Passes

Search period start: 03 December 2021 00:00
Search period end: 13 December 2021 00:00
Orbit: 637 x 648 km, 98.2° (Epoch: 02 December)

Date Brightness Start Highest point End Pass type
(mag) Time Alt. Az. Time Alt. Az. Time Alt. Az.
03 Dec ? 06:57:01 10° E 06:59:21 14° NE 07:01:41 10° NNE visible
07 Dec ? 06:57:33 10° E 06:59:53 14° NE 07:02:13 10° NNE visible
11 Dec ? 06:58:06 10° E 07:00:25 14° NE 07:02:44 10° NNE visible
